Gulfport, MS

5:22 PM CST on January 16, 2017 (GMT -0600)
Gulfport-Biloxi Regional

Weather History for KGPT - February, 2014

Change the Weather History Date:

Saturday, February 8, 2014

  Actual Average Record
Temperature  
Mean Temperature 52 °F -  
Max Temperature 61 °F 60 °F 85 °F (1957)
Min Temperature 44 °F 38 °F 20 °F (1954)
Degree Days  
Heating Degree Days 12    
Growing Degree Days 2 (Base 50)    
Moisture  
Dew Point 41 °F    
Average Humidity 69    
Maximum Humidity 90    
Minimum Humidity 54    
Precipitation  
Precipitation 0.00 in - - ()
Sea Level Pressure  
Sea Level Pressure 30.18 in    
Wind  
Wind Speed 5 mph (East)    
Max Wind Speed 9 mph    
Max Gust Speed -    
Visibility 9 miles    
Events Rain    
Averages and records for this station are not official NWS values.
T = Trace of Precipitation, MM = Missing Value Source: NWS Daily Summary

Daily Weather History Graph

Daily Weather History Graph

Search for Another Location

Airport or City:

Trip Planner

Search our weather history database for the weather conditions in past years. The results will help you decide how hot, cold, wet, or windy it might be!

Date:

Astronomy

Feb. 08, 2014 Rise Set
Actual Time 6:42 AM CST 5:38 PM CST
Civil Twilight 6:17 AM CST 6:03 PM CST
Nautical Twilight 5:49 AM CST 6:32 PM CST
Astronomical Twilight 5:20 AM CST 7:00 PM CST
Moon 12:39 PM CST (2/8) 1:49 AM CST (2/8)
Length of Visible Light 11h 46m
Length of Day
10h 56m
Waxing Gibbous, 69% of the Moon is Illuminated
Feb 8
Waxing Gibbous
Feb 14
Full
Feb 22
Last Quarter
Mar 1
New
Mar 8
First Quarter

Hourly Weather History & Observations

Time (CST) Temp. Windchill Dew Point Humidity Pressure Visibility Wind Dir Wind Speed Gust Speed Precip Events Conditions
12:53 AM 48.9 °F - 34.0 °F 56% 30.20 in 10.0 mi ENE 4.6 mph - N/A   Overcast
1:53 AM 48.0 °F - 35.1 °F 61% 30.19 in 10.0 mi NE 6.9 mph - N/A   Overcast
2:53 AM 46.9 °F - 35.1 °F 63% 30.20 in 10.0 mi North 4.6 mph - 0.00 in Rain Light Rain
3:53 AM 46.9 °F - 35.1 °F 63% 30.20 in 10.0 mi NNE 9.2 mph - 0.00 in   Overcast
4:53 AM 46.0 °F 41.9 °F 34.0 °F 63% 30.21 in 10.0 mi NNE 8.1 mph - N/A   Overcast
5:53 AM 45.0 °F 41.2 °F 33.1 °F 63% 30.20 in 10.0 mi NNE 6.9 mph - N/A   Overcast
6:53 AM 44.1 °F 40.8 °F 33.1 °F 65% 30.22 in 10.0 mi NNE 5.8 mph - N/A   Mostly Cloudy
7:53 AM 46.9 °F - 33.1 °F 59% 30.23 in 10.0 mi ENE 5.8 mph - N/A   Scattered Clouds
8:53 AM 51.1 °F - 35.1 °F 54% 30.23 in 10.0 mi NE 8.1 mph - N/A   Clear
9:53 AM 54.0 °F - 37.9 °F 55% 30.24 in 10.0 mi Calm Calm - N/A   Clear
10:53 AM 57.9 °F - 42.1 °F 56% 30.22 in 10.0 mi ESE 4.6 mph - N/A   Clear
11:53 AM 59.0 °F - 44.1 °F 58% 30.21 in 10.0 mi SE 5.8 mph - N/A   Clear
12:53 PM 57.9 °F - 45.0 °F 62% 30.19 in 10.0 mi SSW 6.9 mph - N/A   Scattered Clouds
1:53 PM 57.0 °F - 45.0 °F 64% 30.16 in 10.0 mi South 8.1 mph - N/A   Overcast
2:53 PM 61.0 °F - 45.0 °F 56% 30.13 in 10.0 mi Calm Calm - N/A   Mostly Cloudy
3:53 PM 57.9 °F - 46.9 °F 67% 30.12 in 10.0 mi South 6.9 mph - N/A   Clear
4:53 PM 55.9 °F - 46.0 °F 69% 30.14 in 10.0 mi SSW 6.9 mph - N/A   Clear
5:53 PM 53.1 °F - 46.9 °F 80% 30.14 in 10.0 mi SSW 5.8 mph - N/A   Clear
6:53 PM 52.0 °F - 46.9 °F 83% 30.16 in 8.0 mi Calm Calm - N/A   Clear
7:53 PM 48.9 °F - 45.0 °F 86% 30.17 in 8.0 mi Calm Calm - N/A   Clear
8:53 PM 48.9 °F - 45.0 °F 86% 30.17 in 5.0 mi Calm Calm - N/A   Overcast
8:55 PM 48.9 °F - 45.0 °F 86% 30.17 in 8.0 mi Calm Calm - N/A   Overcast
9:53 PM 48.0 °F - 44.1 °F 86% 30.17 in 8.0 mi Calm Calm - N/A   Clear
10:53 PM 48.9 °F - 46.0 °F 90% 30.16 in 8.0 mi Calm Calm - N/A   Overcast
11:53 PM 46.9 °F - 44.1 °F 90% 30.16 in 3.0 mi Calm Calm - N/A   Scattered Clouds